Time,TemperatureF,DewpointF,PressureIn,WindDirection,WindDirectionDegrees,WindSpeedMPH,WindSpeedGustMPH,Humidity,HourlyPrecipIn,Conditions,Clouds,dailyrainin,SoftwareType,DateUTC
2013-04-09 00:02:00,40.0,39.0,-100.00,NE,35,12.0,16.0,95,0.00,,,0.00,,2013-04-09 05:02:00,
2013-04-09 00:12:00,40.0,39.0,-100.00,NE,35,11.0,16.0,95,0.00,,,0.00,,2013-04-09 05:12:00,
2013-04-09 00:22:00,40.0,39.0,-100.00,NE,40,7.0,13.0,95,0.00,,,0.00,,2013-04-09 05:22:00,
2013-04-09 00:32:00,40.0,39.0,-100.00,NE,40,11.0,15.0,95,0.00,,,0.00,,2013-04-09 05:32:00,
2013-04-09 00:42:00,40.0,39.0,-100.00,NE,35,10.0,13.0,95,0.00,,,0.00,,2013-04-09 05:42:00,
2013-04-09 00:52:00,40.0,39.0,-100.00,NE,35,11.0,14.0,94,0.00,,,0.00,,2013-04-09 05:52:00,
2013-04-09 01:02:00,40.0,37.0,-100.00,NE,50,11.0,13.0,94,0.00,,,0.00,,2013-04-09 06:02:00,
2013-04-09 01:12:00,40.0,37.0,-100.00,NE,35,10.0,15.0,93,0.00,,,0.00,,2013-04-09 06:12:00,
2013-04-09 01:22:00,40.0,37.0,-100.00,NE,35,10.0,17.0,92,0.00,,,0.00,,2013-04-09 06:22:00,
2013-04-09 01:32:00,39.0,37.0,-100.00,NE,55,11.0,14.0,92,0.00,,,0.00,,2013-04-09 06:32:00,
2013-04-09 01:42:00,39.0,37.0,-100.00,NE,40,11.0,16.0,91,0.00,,,0.00,,2013-04-09 06:42:00,
2013-04-09 01:52:00,39.0,37.0,-100.00,NE,40,12.0,17.0,91,0.00,,,0.00,,2013-04-09 06:52:00,
2013-04-09 02:02:00,39.0,37.0,-100.00,NE,40,9.0,18.0,91,0.00,,,0.00,,2013-04-09 07:02:00,
2013-04-09 02:12:00,39.0,37.0,-100.00,NE,50,10.0,13.0,91,0.00,,,0.00,,2013-04-09 07:12:00,
2013-04-09 02:22:00,39.0,37.0,-100.00,NE,45,12.0,17.0,91,0.00,,,0.00,,2013-04-09 07:22:00,
2013-04-09 02:32:00,39.0,37.0,-100.00,NNE,30,12.0,16.0,91,0.00,,,0.00,,2013-04-09 07:32:00,
2013-04-09 02:42:00,39.0,36.0,-100.00,NE,40,17.0,20.0,91,0.00,,,0.00,,2013-04-09 07:42:00,
2013-04-09 02:52:00,39.0,36.0,-100.00,NE,35,16.0,21.0,91,0.00,,,0.00,,2013-04-09 07:52:00,
2013-04-09 03:03:00,39.0,36.0,-100.00,NE,35,14.0,21.0,90,0.00,,,0.00,,2013-04-09 08:03:00,
2013-04-09 03:12:00,39.0,36.0,-100.00,NE,40,11.0,16.0,90,0.00,,,0.00,,2013-04-09 08:12:00,
2013-04-09 03:22:00,39.0,36.0,-100.00,NE,40,8.0,13.0,90,0.00,,,0.00,,2013-04-09 08:22:00,
2013-04-09 03:32:00,39.0,36.0,-100.00,NE,40,12.0,15.0,90,0.00,,,0.00,,2013-04-09 08:32:00,
2013-04-09 03:42:00,39.0,36.0,-100.00,NNE,30,12.0,14.0,90,0.00,,,0.00,,2013-04-09 08:42:00,
2013-04-09 03:52:00,39.0,36.0,-100.00,NE,40,9.0,15.0,90,0.00,,,0.00,,2013-04-09 08:52:00,
2013-04-09 04:02:00,39.0,36.0,-100.00,NE,45,7.0,11.0,90,0.00,,,0.00,,2013-04-09 09:02:00,
2013-04-09 04:12:00,39.0,36.0,-100.00,NE,45,8.0,12.0,90,0.00,,,0.00,,2013-04-09 09:12:00,
2013-04-09 04:22:00,38.0,36.0,-100.00,NNE,30,11.0,14.0,90,0.00,,,0.00,,2013-04-09 09:22:00,
2013-04-09 04:33:00,38.0,36.0,-100.00,NE,35,13.0,16.0,91,0.00,,,0.00,,2013-04-09 09:33:00,
2013-04-09 04:43:00,38.0,36.0,-100.00,NNE,30,14.0,18.0,91,0.00,,,0.00,,2013-04-09 09:43:00,
2013-04-09 04:52:00,38.0,36.0,-100.00,NE,40,14.0,18.0,92,0.00,,,0.00,,2013-04-09 09:52:00,
2013-04-09 05:03:00,38.0,36.0,-100.00,NNE,30,16.0,26.0,92,0.00,,,0.00,,2013-04-09 10:03:00,
2013-04-09 05:12:00,38.0,36.0,-100.00,NNE,30,16.0,23.0,92,0.00,,,0.00,,2013-04-09 10:12:00,
2013-04-09 05:23:00,38.0,36.0,-100.00,NE,35,16.0,21.0,92,0.00,,,0.00,,2013-04-09 10:23:00,
2013-04-09 05:32:00,38.0,36.0,-100.00,NE,35,12.0,21.0,92,0.00,,,0.00,,2013-04-09 10:32:00,
2013-04-09 05:42:00,37.0,36.0,-100.00,NE,35,12.0,21.0,92,0.00,,,0.00,,2013-04-09 10:42:00,
2013-04-09 05:52:00,37.0,36.0,-100.00,NNE,30,17.0,22.0,92,0.00,,,0.00,,2013-04-09 10:52:00,
2013-04-09 06:02:00,37.0,36.0,-100.00,NNE,30,19.0,26.0,92,0.00,,,0.00,,2013-04-09 11:02:00,
2013-04-09 06:12:00,37.0,36.0,-100.00,NNE,30,19.0,26.0,92,0.00,,,0.00,,2013-04-09 11:12:00,
2013-04-09 06:22:00,37.0,36.0,-100.00,NE,35,22.0,27.0,92,0.00,,,0.00,,2013-04-09 11:22:00,
2013-04-09 06:32:00,37.0,36.0,-100.00,NNE,30,23.0,29.0,92,0.00,,,0.00,,2013-04-09 11:32:00,
2013-04-09 06:42:00,37.0,36.0,-100.00,NE,35,18.0,27.0,91,0.00,,,0.00,,2013-04-09 11:42:00,
2013-04-09 06:52:00,37.0,36.0,-100.00,NE,40,15.0,24.0,91,0.00,,,0.00,,2013-04-09 11:52:00,
2013-04-09 07:02:00,37.0,34.0,-100.00,NNE,30,19.0,26.0,91,0.00,,,0.00,,2013-04-09 12:02:00,
2013-04-09 07:12:00,37.0,34.0,-100.00,NE,35,19.0,26.0,91,0.00,,,0.00,,2013-04-09 12:12:00,
2013-04-09 07:22:00,37.0,36.0,-100.00,NE,35,17.0,21.0,92,0.00,,,0.00,,2013-04-09 12:22:00,
2013-04-09 07:32:00,37.0,36.0,-100.00,NE,40,16.0,23.0,92,0.00,,,0.00,,2013-04-09 12:32:00,
2013-04-09 07:42:00,37.0,36.0,-100.00,NE,40,17.0,22.0,92,0.00,,,0.00,,2013-04-09 12:42:00,
2013-04-09 07:52:00,37.0,36.0,-100.00,NE,45,17.0,23.0,92,0.00,,,0.00,,2013-04-09 12:52:00,
2013-04-09 08:02:00,36.0,34.0,-100.00,NE,35,21.0,27.0,92,0.00,,,0.00,,2013-04-09 13:02:00,
2013-04-09 08:12:00,36.0,34.0,-100.00,NE,35,21.0,29.0,92,0.00,,,0.00,,2013-04-09 13:12:00,
2013-04-09 08:22:00,36.0,34.0,-100.00,NE,35,19.0,26.0,92,0.00,,,0.00,,2013-04-09 13:22:00,
2013-04-09 08:32:00,36.0,34.0,-100.00,NNE,30,21.0,24.0,93,0.00,,,0.00,,2013-04-09 13:32:00,
2013-04-09 08:42:00,36.0,34.0,-100.00,NE,35,19.0,27.0,94,0.00,,,0.00,,2013-04-09 13:42:00,
2013-04-09 08:52:00,36.0,34.0,-100.00,NE,35,24.0,29.0,93,0.00,,,0.00,,2013-04-09 13:52:00,
2013-04-09 09:03:00,36.0,34.0,-100.00,NE,35,21.0,30.0,93,0.00,,,0.00,,2013-04-09 14:03:00,
2013-04-09 09:12:00,36.0,34.0,-100.00,NNE,30,21.0,30.0,93,0.00,,,0.00,,2013-04-09 14:12:00,
2013-04-09 09:22:00,36.0,34.0,-100.00,NE,40,17.0,25.0,94,0.00,,,0.00,,2013-04-09 14:22:00,
2013-04-09 09:32:00,36.0,34.0,-100.00,NE,35,16.0,21.0,94,0.00,,,0.00,,2013-04-09 14:32:00,
2013-04-09 09:42:00,36.0,34.0,-100.00,NE,35,17.0,21.0,95,0.00,,,0.00,,2013-04-09 14:42:00,
2013-04-09 09:52:00,35.0,34.0,-100.00,NNE,30,19.0,26.0,95,0.00,,,0.00,,2013-04-09 14:52:00,
2013-04-09 10:02:00,35.0,34.0,-100.00,NE,35,17.0,26.0,95,0.00,,,0.00,,2013-04-09 15:02:00,
2013-04-09 10:12:00,35.0,34.0,-100.00,NE,35,17.0,24.0,96,0.00,,,0.00,,2013-04-09 15:12:00,
2013-04-09 10:22:00,35.0,34.0,-100.00,NNE,30,18.0,23.0,96,0.00,,,0.00,,2013-04-09 15:22:00,
2013-04-09 10:33:00,35.0,34.0,-100.00,NNE,30,22.0,27.0,96,0.00,,,0.00,,2013-04-09 15:33:00,
2013-04-09 10:43:00,35.0,34.0,-100.00,NNE,25,21.0,27.0,96,0.00,,,0.00,,2013-04-09 15:43:00,
2013-04-09 10:53:00,35.0,34.0,-100.00,NNE,25,21.0,27.0,96,0.00,,,0.00,,2013-04-09 15:53:00,
2013-04-09 11:03:00,34.0,34.0,-100.00,NNE,25,20.0,26.0,96,0.00,,,0.00,,2013-04-09 16:03:00,
2013-04-09 11:13:00,34.0,34.0,-100.00,NNE,20,21.0,25.0,96,0.00,,,0.00,,2013-04-09 16:13:00,
2013-04-09 11:23:00,34.0,34.0,-100.00,NNE,25,20.0,28.0,96,0.00,,,0.01,,2013-04-09 16:23:00,
2013-04-09 11:33:00,34.0,34.0,-100.00,NNE,20,24.0,28.0,96,0.00,,,0.01,,2013-04-09 16:33:00,
2013-04-09 11:42:00,34.0,34.0,-100.00,NNE,15,24.0,29.0,96,0.00,,,0.01,,2013-04-09 16:42:00,
2013-04-09 11:52:00,34.0,34.0,-100.00,NNE,20,21.0,28.0,96,0.00,,,0.01,,2013-04-09 16:52:00,
2013-04-09 12:02:00,34.0,34.0,-100.00,NNE,20,22.0,26.0,96,0.00,,,0.01,,2013-04-09 17:02:00,
2013-04-09 12:12:00,34.0,34.0,-100.00,NNE,20,20.0,26.0,96,0.00,,,0.01,,2013-04-09 17:12:00,
2013-04-09 12:23:00,34.0,34.0,-100.00,NNE,25,22.0,29.0,96,0.00,,,0.01,,2013-04-09 17:23:00,
2013-04-09 12:32:00,34.0,34.0,-100.00,NNE,30,22.0,30.0,96,0.00,,,0.01,,2013-04-09 17:32:00,
2013-04-09 12:42:00,34.0,34.0,-100.00,NE,40,19.0,29.0,96,0.00,,,0.01,,2013-04-09 17:42:00,
2013-04-09 12:53:00,35.0,34.0,-100.00,NE,35,19.0,31.0,96,0.00,,,0.01,,2013-04-09 17:53:00,
2013-04-09 13:02:00,35.0,34.0,-100.00,NE,40,21.0,25.0,95,0.00,,,0.01,,2013-04-09 18:02:00,
2013-04-09 13:12:00,35.0,34.0,-100.00,NNE,30,21.0,26.0,95,0.00,,,0.01,,2013-04-09 18:12:00,
2013-04-09 13:22:00,36.0,34.0,-100.00,NE,35,19.0,29.0,94,0.00,,,0.01,,2013-04-09 18:22:00,
2013-04-09 13:32:00,36.0,34.0,-100.00,NE,35,23.0,30.0,94,0.00,,,0.01,,2013-04-09 18:32:00,
2013-04-09 13:43:00,36.0,34.0,-100.00,NE,40,21.0,29.0,93,0.00,,,0.01,,2013-04-09 18:43:00,
2013-04-09 13:52:00,36.0,34.0,-100.00,NNE,30,26.0,29.0,93,0.00,,,0.01,,2013-04-09 18:52:00,
2013-04-09 14:02:00,36.0,34.0,-100.00,NNE,30,23.0,29.0,92,0.00,,,0.01,,2013-04-09 19:02:00,
2013-04-09 14:12:00,36.0,34.0,-100.00,NNE,30,23.0,29.0,92,0.00,,,0.01,,2013-04-09 19:12:00,
2013-04-09 14:22:00,36.0,34.0,-100.00,NE,35,22.0,29.0,92,0.00,,,0.01,,2013-04-09 19:22:00,
2013-04-09 14:32:00,36.0,34.0,-100.00,NE,45,22.0,29.0,90,0.00,,,0.01,,2013-04-09 19:32:00,
2013-04-09 14:41:00,36.0,34.0,-100.00,NE,45,22.0,29.0,90,0.00,,,0.01,,2013-04-09 19:41:00,
2013-04-09 14:52:00,39.0,36.0,-100.00,NE,45,15.0,25.0,85,0.00,,,0.01,,2013-04-09 19:52:00,
2013-04-09 15:02:00,39.0,34.0,-100.00,NE,50,23.0,30.0,81,0.00,,,0.01,,2013-04-09 20:02:00,
2013-04-09 15:12:00,39.0,34.0,-100.00,NE,35,20.0,30.0,81,0.00,,,0.01,,2013-04-09 20:12:00,
2013-04-09 15:22:00,40.0,34.0,-100.00,NE,40,16.0,27.0,79,0.00,,,0.01,,2013-04-09 20:22:00,
2013-04-09 15:33:00,40.0,34.0,-100.00,NE,35,19.0,24.0,78,0.00,,,0.01,,2013-04-09 20:33:00,
2013-04-09 15:42:00,40.0,34.0,-100.00,NE,35,19.0,27.0,76,0.00,,,0.01,,2013-04-09 20:42:00,
2013-04-09 15:52:00,40.0,34.0,-100.00,NE,35,18.0,27.0,76,0.00,,,0.01,,2013-04-09 20:52:00,
2013-04-09 16:02:00,40.0,34.0,-100.00,NNE,30,17.0,27.0,76,0.00,,,0.01,,2013-04-09 21:02:00,
2013-04-09 16:13:00,40.0,34.0,-100.00,NE,40,17.0,27.0,75,0.00,,,0.01,,2013-04-09 21:13:00,
2013-04-09 16:22:00,40.0,34.0,-100.00,NE,40,17.0,27.0,75,0.00,,,0.01,,2013-04-09 21:22:00,
2013-04-09 16:33:00,41.0,34.0,-100.00,NNE,30,15.0,20.0,75,0.00,,,0.01,,2013-04-09 21:33:00,
2013-04-09 16:42:00,41.0,34.0,-100.00,NNE,30,15.0,20.0,75,0.00,,,0.01,,2013-04-09 21:42:00,
2013-04-09 16:52:00,41.0,34.0,-100.00,NE,40,15.0,27.0,72,0.00,,,0.01,,2013-04-09 21:52:00,
2013-04-09 17:03:00,41.0,32.0,-100.00,NE,50,13.0,21.0,71,0.00,,,0.01,,2013-04-09 22:03:00,
2013-04-09 17:12:00,41.0,32.0,-100.00,NE,40,18.0,23.0,71,0.00,,,0.01,,2013-04-09 22:12:00,
2013-04-09 17:23:00,41.0,32.0,-100.00,NE,45,12.0,20.0,70,0.00,,,0.01,,2013-04-09 22:23:00,
2013-04-09 17:33:00,41.0,32.0,-100.00,NE,35,11.0,18.0,69,0.00,,,0.01,,2013-04-09 22:33:00,
2013-04-09 17:42:00,41.0,32.0,-100.00,NE,45,9.0,15.0,70,0.00,,,0.01,,2013-04-09 22:42:00,
2013-04-09 17:52:00,41.0,32.0,-100.00,NE,35,11.0,16.0,71,0.00,,,0.01,,2013-04-09 22:52:00,
2013-04-09 18:03:00,41.0,30.0,-100.00,NE,40,15.0,23.0,68,0.00,,,0.01,,2013-04-09 23:03:00,
2013-04-09 18:12:00,41.0,30.0,-100.00,NE,40,15.0,19.0,68,0.00,,,0.01,,2013-04-09 23:12:00,
2013-04-09 18:22:00,41.0,30.0,-100.00,NE,40,11.0,21.0,68,0.00,,,0.01,,2013-04-09 23:22:00,
2013-04-09 18:32:00,41.0,30.0,-100.00,NE,45,11.0,16.0,67,0.00,,,0.01,,2013-04-09 23:32:00,
2013-04-09 18:42:00,41.0,30.0,-100.00,NE,45,11.0,14.0,68,0.00,,,0.01,,2013-04-09 23:42:00,
2013-04-09 18:52:00,40.0,30.0,-100.00,NE,55,13.0,17.0,67,0.00,,,0.01,,2013-04-09 23:52:00,
2013-04-09 19:03:00,40.0,30.0,-100.00,NE,55,12.0,17.0,67,0.00,,,0.01,,2013-04-10 00:03:00,
2013-04-09 19:12:00,40.0,30.0,-100.00,NE,55,12.0,17.0,67,0.00,,,0.01,,2013-04-10 00:12:00,
2013-04-09 19:22:00,40.0,30.0,-100.00,NE,45,13.0,19.0,67,0.00,,,0.01,,2013-04-10 00:22:00,
2013-04-09 19:32:00,40.0,30.0,-100.00,NE,40,13.0,20.0,66,0.00,,,0.01,,2013-04-10 00:32:00,
2013-04-09 19:42:00,40.0,30.0,-100.00,NE,40,15.0,21.0,66,0.00,,,0.01,,2013-04-10 00:42:00,
2013-04-09 19:52:00,40.0,30.0,-100.00,NE,50,15.0,26.0,65,0.00,,,0.01,,2013-04-10 00:52:00,
2013-04-09 20:02:00,40.0,28.0,-100.00,ENE,60,17.0,25.0,64,0.00,,,0.01,,2013-04-10 01:02:00,
2013-04-09 20:12:00,40.0,28.0,-100.00,NE,45,15.0,21.0,63,0.00,,,0.01,,2013-04-10 01:12:00,
2013-04-09 20:23:00,40.0,28.0,-100.00,NE,40,18.0,26.0,62,0.00,,,0.01,,2013-04-10 01:23:00,
2013-04-09 20:32:00,40.0,28.0,-100.00,NE,40,18.0,29.0,63,0.00,,,0.01,,2013-04-10 01:32:00,
2013-04-09 20:42:00,39.0,28.0,-100.00,NE,35,16.0,26.0,65,0.00,,,0.01,,2013-04-10 01:42:00,
2013-04-09 20:52:00,39.0,28.0,-100.00,NE,35,14.0,22.0,67,0.00,,,0.01,,2013-04-10 01:52:00,
2013-04-09 21:02:00,39.0,28.0,-100.00,NE,45,15.0,30.0,67,0.00,,,0.01,,2013-04-10 02:02:00,
2013-04-09 21:12:00,38.0,28.0,-100.00,NE,50,12.0,22.0,69,0.00,,,0.01,,2013-04-10 02:12:00,
2013-04-09 21:22:00,37.0,28.0,-100.00,NE,45,15.0,21.0,72,0.00,,,0.01,,2013-04-10 02:22:00,
2013-04-09 21:32:00,37.0,28.0,-100.00,NE,55,17.0,26.0,72,0.00,,,0.01,,2013-04-10 02:32:00,
2013-04-09 21:42:00,36.0,28.0,-100.00,ENE,65,13.0,23.0,73,0.00,,,0.01,,2013-04-10 02:42:00,
2013-04-09 21:52:00,36.0,28.0,-100.00,ENE,60,7.0,15.0,74,0.00,,,0.01,,2013-04-10 02:52:00,
2013-04-09 22:02:00,36.0,28.0,-100.00,NE,55,9.0,15.0,76,0.00,,,0.01,,2013-04-10 03:02:00,
2013-04-09 22:12:00,36.0,30.0,-100.00,NE,50,9.0,13.0,78,0.00,,,0.01,,2013-04-10 03:12:00,
2013-04-09 22:22:00,36.0,30.0,-100.00,NE,45,7.0,12.0,80,0.00,,,0.01,,2013-04-10 03:22:00,
2013-04-09 22:32:00,35.0,30.0,-100.00,NNE,20,7.0,11.0,82,0.00,,,0.01,,2013-04-10 03:32:00,
2013-04-09 22:43:00,35.0,30.0,-100.00,North,0,7.0,9.0,83,0.00,,,0.01,,2013-04-10 03:43:00,
2013-04-09 22:52:00,35.0,30.0,-100.00,NNE,15,10.0,12.0,86,0.00,,,0.01,,2013-04-10 03:52:00,
2013-04-09 23:03:00,34.0,30.0,-100.00,North,10,9.0,13.0,88,0.00,,,0.01,,2013-04-10 04:03:00,
2013-04-09 23:13:00,34.0,30.0,-100.00,North,10,9.0,12.0,89,0.00,,,0.01,,2013-04-10 04:13:00,
2013-04-09 23:23:00,33.0,32.0,-100.00,NNE,15,13.0,15.0,91,0.00,,,0.01,,2013-04-10 04:23:00,
2013-04-09 23:33:00,33.0,32.0,-100.00,NNE,20,16.0,18.0,93,0.00,,,0.01,,2013-04-10 04:33:00,
2013-04-09 23:42:00,33.0,32.0,-100.00,NNE,20,19.0,21.0,95,0.01,,,0.01,,2013-04-10 04:42:00,
2013-04-09 23:52:00,33.0,32.0,-100.00,NNE,25,20.0,24.0,96,0.00,,,0.01,,2013-04-10 04:52:00,